This is the latest recevied weather packets stored in our database for station/object SR9SMR. If no packets are shown the sender has not sent any weather packets the latest 10 day(s).
| Time | Temp. | Humidity | Pressure | Rain* | Wind** | Luminosity | Snow |
|---|---|---|---|---|---|---|---|
| 1787802424 | 13.33° C | 100% | 904.8 hPa | - | - | - | - |
| 1787802369 | 13.33° C | 100% | 904.7 hPa | - | - | - | - |
| 1787802295 | 13.33° C | 100% | 904.8 hPa | - | - | - | - |
| 1787802241 | 13.33° C | 100% | 904.9 hPa | - | - | - | - |
| 1787802167 | 13.89° C | 100% | 907.4 hPa | - | - | - | - |
| 1787802102 | 13.89° C | 100% | 910.4 hPa | - | - | - | - |
| 1787802037 | 13.89° C | 100% | 904.9 hPa | - | - | - | - |
| 1787801993 | 13.89° C | 100% | 905 hPa | - | - | - | - |
| 1787801919 | 13.89° C | 100% | 905.2 hPa | - | - | - | - |
| 1787801866 | 13.89° C | 100% | 905.4 hPa | - | - | - | - |
| 1787801791 | 13.33° C | 100% | 906 hPa | - | - | - | - |
| 1787801737 | 13.33° C | 100% | 906 hPa | - | - | - | - |
| 1787801662 | 13.33° C | 100% | 910.9 hPa | - | - | - | - |
| 1787801608 | 12.78° C | 100% | 905.4 hPa | - | - | - | - |
| 1787801534 | 12.78° C | 100% | 905.3 hPa | - | - | - | - |
| 1787801469 | 12.78° C | 100% | 905 hPa | - | - | - | - |
| 1787801403 | 12.78° C | 100% | 905 hPa | - | - | - | - |
| 1787801350 | 12.22° C | 100% | 904.9 hPa | - | - | - | - |
| 1787801275 | 12.22° C | 100% | 905 hPa | - | - | - | - |
| 1787801222 | 12.22° C | 100% | 905.2 hPa | - | - | - | - |
| 1787801147 | 12.22° C | 100% | 905.9 hPa | - | - | - | - |
| 1787801092 | 12.78° C | 100% | 907.2 hPa | - | - | - | - |
| 1787801018 | 12.78° C | 100% | 905.7 hPa | - | - | - | - |
| 1787800974 | 12.78° C | 100% | 905.7 hPa | - | - | - | - |
| 1787800900 | 13.33° C | 100% | 905.4 hPa | - | - | - | - |
* Rain since midnight (hover to see other rain measurements)
** Current wind speed in m/s (hover to see current wind gust speed)